Regional Weather Roundup
Issued by NWS

Home | Current Version | Previous Version | Graphics & Text | Print | Product List | Glossary On
Versions: 1 2 3 4 5 6 7 8 9 10 11 12 13 14 15 16 17 18 19 20 21 22 23 24 25 26 27 28 29 30 31 32 33 34 35 36 37 38 39 40 41 42 43 44 45 46 47 48 49 50
000
ASUS43 KFSD 152110
RWRSD

WEATHER ROUNDUP FOR SOUTH DAKOTA
NATIONAL WEATHER SERVICE SIOUX FALLS SD
400 PM CDT MON SEP 15 2014

NOTE: "FAIR" INDICATES FEW OR NO CLOUDS BELOW 12,000 FEET WITH NO
SIGNIFICANT WEATHER AND/OR OBSTRUCTIONS TO VISIBILITY.


SDZ001>005-009-010-012>017-152200-
NORTHWEST AND NORTH CENTRAL SOUTH DAKOTA

CITY           SKY/WX    TMP DP  RH WIND       PRES   REMARKS
BUFFALO          N/A     67  39  35 S9        30.10F
FAITH            N/A     64  39  39 S18       30.19F
MOBRIDGE       SUNNY     64  34  32 S7        30.19F
$$

SDZ012>016-024>037-041>051-057-063-072>074-152200-
SOUTHWEST AND SOUTH CENTRAL SOUTH DAKOTA

CITY           SKY/WX    TMP DP  RH WIND       PRES   REMARKS
RAPID CTY ARPT SUNNY     66  44  45 S18G26    30.18F
PIERRE         SUNNY     63  36  36 VRB6      30.22F
CUSTER         SUNNY     61  39  44 SW10G16   30.24F
ELLSWORTH AFB  SUNNY     66  45  47 S16G26    30.17F
PHILIP         SUNNY     67  39  35 S8        30.21F
PINE RIDGE     SUNNY     67  43  41 S9G17     30.21F
WINNER         FAIR      64  34  32 CALM      30.25F
$$

SDZ004>011-016>023-039-040-152200-
NORTHEAST SOUTH DAKOTA

CITY           SKY/WX    TMP DP  RH WIND       PRES   REMARKS
ABERDEEN       SUNNY     64  35  34 N7        30.23F
WATERTOWN      FAIR      61  35  37 VRB7      30.23F
SISSETON         N/A     64  31  28 MISG      30.21F
$$

SDZ017-020-022-023-036>040-048>070-152200-
SOUTHEAST SOUTH DAKOTA

CITY           SKY/WX    TMP DP  RH WIND       PRES   REMARKS
SIOUX FALLS    FAIR      62  43  49 NW7       30.24F
HURON          SUNNY     64  33  31 N8        30.24F
CHAMBERLAIN    SUNNY     63  32  32 CALM      30.25F
MITCHELL       SUNNY     64  38  38 NE7       30.25F
YANKTON        FAIR      63  39  42 CALM      30.25F
$$

ABBREVIATIONS USED IN REMARKS
   TC - TEMPERATURE IN CELSIUS
  WCI - WIND CHILL INDEX
   HX - HEAT INDEX
  VSB - VISIBILITY



USA.gov is the U.S. government's official web portal to all federal, state and local government web resources and services.